Weather in Tumaco

Colombia     1°48′31″N   78°45′59″W
temp.,
°C
wind,
m/s
gust,
m/s
humid.,
%
clouds,
%
prec.,
mm/h
press.,
hPa
HPBL,
m
23 april, fri
fri2301:00+24sw119552 3.4 101041
04:00+23ssw1294100 1.6 101056
07:00+24s119310 2.5 101263
10:00+27wsw128273 1.8 1013488
13:00+28w347860 3.7 1010878
16:00+28wnw238499 2.5 1008659
19:00+25wnw2491100 3.9 1010192
22:00+24wsw2494100 6.8 1012115
24 april, sat
sat2401:00+24sw129367 11.6 101172
04:00+24s239358 3.8 101196
07:00+24ssw12945 4.4 1012118
10:00+28sw227823 0.7 1013712
13:00+28wnw338043 2.8 1010830
16:00+28wnw347674 1.3 1008774
19:00+25w2290100 2.0 1010172
22:00+24ssw1194100 1.5 101242
25 april, sun
sun2501:00+24s1195100 1.6 101050
04:00+24sse119432 0.1 100948
07:00+24sse2394100 0.1 1011112
10:00+28sw1276100 0.2 1012733
13:00+28wnw3381100 1.6 1009595
16:00+27wnw3481100 2.0 1008668
19:00+25w2389100 2.4 1010188
22:00+24ssw229296 1.1 101157
26 april, mon
mon2601:00+24ssw129484 1.2 101056
04:00+24s239588 0.1 100997
07:00+24ssw239346 0.3 1010120
10:00+28sw237736 0.3 1011831
13:00+29w447743 1.3 10081010
16:00+27wsw478698 1.9 1007607
19:00+25wsw3793100 4.6 1009309
22:00+24w2796100 8.1 1011272
27 april, tue
tue2701:00+24wsw1297100 18.1 101090
04:00+23sse3598100 34.6 1010282
07:00+23s1398100 49.7 1010185
10:00+23sw2497100 5.8 1013245
13:00+24sw2396100 8.1 1011297
16:00+24sw2595100 0.6 1009343
19:00+23ssw2396100 0.7 1011162
22:00+23s2596100 0.2 1012220